{"data":{"norad_id":68380,"epoch":"2026-05-25T03:17:36.964032Z","epoch_age_seconds":67227,"freshness":"FRESH","line1":"1 68380U 26063A   26145.13723338  .00310742  00000+0  16983-2 0  9995","line2":"2 68380  97.2854 288.9729 0001742 314.4414  45.6710 15.79018075  9692","mean_motion":15.79018075,"eccentricity":0.0001742,"inclination_deg":97.2854,"raan_deg":288.9729,"arg_perigee_deg":314.4414,"mean_anomaly_deg":45.671,"bstar":0.0016983,"rev_number":969,"period_min":91.195916170877,"perigee_km":332.0524166763,"apogee_km":334.39065399001,"semimajor_km":6711.3585353332,"source":"CELESTRAK","updated_at":"2026-05-25T13:38:21.927991Z"}}